Wind_Speed
24 26 28 30 32 34 36 38 40 42 42 42 44 45 45 44 43 43 42 41 40 40 39 39 38 37 36 35 35 35 34 33 32 31 31 29 27 26 27 28 29 29 29 26
24 27 28 30 33 34 36 38 39 42 42 42 43 44 43 42 42 41 40 39 39 39 39 39 39 40 39 39 38 38 37 36 35 35 36 35 32 30 30 32 34 35 32 29
25 27 30 33 35 37 38 39 40 42 42 42 42 43 41 39 38 36 35 34 33 33 34 35 37 38 39 40 40 40 39 38 37 39 40 39 36 33 32 32 35 36 34 31
26 30 33 36 38 39 41 42 42 42 41 41 40 39 40 35 35 33 32 31 30 28 28 29 31 35 37 39 40 40 40 39 39 41 42 41 39 37 35 33 34 36 35 32
30 33 36 39 42 43 46 47 46 45 44 44 43 42 43 39 37 36 35 34 32 31 30 29 30 32 35 38 41 41 42 42 42 43 45 44 42 44 42 38 36 37 36 33
28 29 30 33 37 40 43 45 47 47 46 47 42 41 42 42 38 37 36 36 35 34 34 33 33 34 35 38 41 42 43 44 45 46 45 45 45 47 47 44 40 38 37 33
25 24 25 27 29 32 34 36 39 40 39 39 40 40 43 41 38 36 35 35 36 36 37 37 37 37 37 38 41 42 42 44 44 44 45 46 47 48 49 47 44 40 37 33
24 25 26 26 26 27 28 27 27 27 25 27 30 32 33 32 32 32 32 33 33 34 36 37 37 37 37 38 39 41 41 41 40 41 43 46 48 50 50 50 47 41 35 31
25 25 25 24 24 24 24 21 17 14 14 18 21 25 25 24 26 27 28 28 28 29 29 30 32 32 32 33 35 37 38 37 37 38 40 43 46 49 50 50 46 38 31 26
28 26 26 24 24 23 23 21 16 10 6 4 6 11 16 17 18 18 18 18 18 19 20 20 21 21 22 23 26 30 33 34 34 35 38 41 43 45 46 45 39 32 26 21
32 30 27 25 23 23 21 20 19 16 10 6 2 2 4 6 8 9 9 9 8 8 7 9 11 13 13 15 18 22 24 26 28 30 33 35 34 32 30 28 24 20 17 16
34 33 30 26 25 23 22 20 19 17 14 10 7 6 5 3 3 4 6 7 8 6 4 4 4 5 7 9 11 13 15 19 21 21 21 21 19 16 14 13 12 10 11 13
34 34 32 28 25 23 22 22 19 17 15 12 10 8 6 4 3 4 8 10 9 8 6 5 5 6 7 8 8 8 9 9 10 9 9 8 7 6 6 5 4 6 9 12
31 32 31 28 26 24 24 23 21 19 16 14 13 12 11 11 10 9 10 11 11 9 8 8 8 9 11 11 10 9 8 7 7 7 7 7 6 5 3 1 3 7 10 13
29 30 30 28 25 25 26 26 24 22 20 19 18 17 17 16 15 13 13 12 11 10 9 8 9 11 12 13 12 11 10 10 9 9 8 7 6 3 1 3 6 9 12 15
28 28 28 27 25 23 24 26 26 23 23 22 21 19 18 17 15 14 13 10 8 8 6 6 7 10 11 12 11 10 10 10 9 8 7 6 4 4 4 6 8 10 13 15
26 26 26 26 25 23 22 21 22 22 22 22 21 21 19 17 14 12 11 9 8 8 7 7 8 9 11 11 11 10 10 9 8 8 7 7 7 7 9 10 12 14 16 17
27 26 24 23 23 23 21 19 18 20 21 22 22 22 20 20 17 15 14 13 12 11 10 11 11 11 12 12 11 11 10 10 9 9 9 10 11 12 13 14 16 18 19 21
30 28 25 22 20 20 19 18 17 18 19 21 22 22 21 21 21 18 17 15 14 13 13 13 13 12 11 10 10 10 10 10 10 11 11 12 13 13 14 16 17 18 20 20
33 32 28 23 19 18 17 16 16 16 17 18 19 20 21 22 21 19 17 16 15 14 13 12 11 11 10 10 10 11 11 11 12 12 12 12 12 13 14 15 17 18 19 20
35 35 32 26 20 16 15 14 14 14 15 16 17 19 19 20 18 17 16 16 15 14 14 13 13 12 13 13 13 13 13 13 13 13 13 14 14 15 15 16 17 17 17 18
33 36 35 31 24 17 14 13 13 13 13 14 15 16 17 17 16 16 16 16 15 15 14 14 14 14 14 14 14 14 14 14 14 14 15 16 17 17 17 17 18 17 17 16
29 33 34 33 28 23 17 14 13 12 12 12 13 13 14 14 14 14 14 15 15 15 14 14 14 15 15 15 15 15 15 14 14 15 16 17 18 18 19 19 19 18 17 17
25 28 31 32 30 26 21 16 14 12 11 11 12 11 11 11 11 11 12 12 14 14 14 14 15 15 16 16 16 16 15 15 16 17 18 19 19 20 21 21 20 19 18 18
19 23 27 29 29 27 24 20 16 13 11 10 10 10 10 9 9 9 10 11 12 14 14 14 15 16 16 17 16 16 16 16 17 18 18 19 20 21 21 21 21 20 20 19
15 18 21 24 26 26 24 22 18 15 12 10 9 8 8 8 7 8 9 9 11 12 13 13 14 14 15 16 16 16 16 16 16 17 18 19 20 21 22 23 22 22 22 22
Wind_Direction
267 267 267 269 269 268 269 269 269 268 267 266 266 266 266 265 265 264 263 263 262 261 260 259 259 259 260 263 267 271 273 275 275 271 266 263 260 261 263 264 260 256 255 255
274 273 275 275 275 275 275 274 273 273 271 270 269 269 269 268 267 266 265 263 262 261 261 260 259 258 257 257 259 263 266 270 272 271 269 267 264 263 265 270 267 258 253 254
282 284 283 282 282 281 279 277 275 275 274 273 272 272 270 269 268 266 265 264 262 261 262 262 261 260 258 256 256 257 260 263 266 268 269 269 267 266 268 273 272 264 252 251
295 293 290 288 285 283 281 279 277 276 276 276 274 274 271 269 268 267 266 264 264 263 264 266 267 264 259 256 254 253 254 257 259 261 263 265 265 265 266 270 271 266 255 251
306 303 298 293 289 285 282 279 276 274 272 271 272 272 272 270 270 269 269 268 267 267 268 271 273 271 264 256 251 250 249 251 254 256 257 258 260 262 264 267 269 265 258 254
319 314 308 303 298 292 286 281 276 272 269 267 267 268 269 269 270 270 270 270 270 271 272 275 278 277 270 260 252 249 248 248 250 253 254 254 257 260 262 264 267 263 259 254
342 336 328 321 316 310 302 294 286 279 273 269 265 264 265 267 267 267 268 270 271 272 274 278 280 277 272 263 253 249 249 249 252 254 255 255 256 259 263 266 267 262 256 252
349 342 339 334 328 324 317 309 295 282 268 260 259 258 261 262 261 260 262 265 268 271 275 277 276 274 269 263 255 250 251 252 254 256 256 256 257 260 264 267 266 259 254 250
358 353 351 351 350 347 344 338 324 306 285 265 257 256 255 255 256 256 257 259 262 266 269 271 273 272 269 264 257 252 252 255 257 259 260 262 264 262 264 266 260 251 245 242
8 1 359 359 360 2 6 10 11 4 349 301 266 254 255 259 260 256 251 251 255 259 263 269 274 274 273 268 259 254 254 258 261 265 265 267 268 264 262 258 248 239 235 236
19 14 11 10 10 13 17 25 31 37 43 48 39 340 287 258 246 239 234 231 228 230 244 255 266 268 265 260 253 249 252 258 262 264 266 265 259 255 248 239 228 225 230 241
22 22 20 19 20 22 24 31 37 41 40 41 44 22 338 312 269 217 184 174 169 171 182 197 218 229 223 219 221 226 235 242 246 249 251 246 239 232 214 208 214 228 241 250
23 24 25 26 27 28 30 33 37 40 41 40 35 16 7 28 52 118 139 145 148 143 137 120 114 117 122 131 141 155 179 190 201 203 201 193 180 171 168 182 204 232 247 257
23 25 27 28 31 33 32 32 33 35 36 38 38 39 50 59 71 101 115 131 131 125 118 108 95 86 83 83 86 91 94 94 103 104 104 101 102 106 116 193 243 262 270 276
22 25 28 31 33 35 36 36 36 39 45 52 53 57 62 63 74 89 99 114 117 119 114 100 80 63 56 53 51 54 53 56 63 73 78 80 79 72 23 303 292 290 288 286
21 24 27 31 33 34 36 36 37 44 52 57 57 60 65 73 80 92 100 109 114 110 101 77 51 42 37 33 33 38 39 43 45 49 50 46 30 360 327 312 303 298 295 291
21 22 24 28 31 33 36 37 37 42 52 56 60 63 69 71 78 83 85 88 80 70 59 44 31 27 23 28 35 37 32 30 27 20 11 358 342 326 313 306 301 297 294 290
24 22 22 25 30 33 36 41 43 46 52 55 57 60 64 65 70 71 71 67 61 57 55 51 50 48 45 41 35 29 24 17 10 1 351 339 329 319 310 304 301 298 295 292
28 25 23 24 28 33 38 45 50 54 57 57 57 59 62 66 67 67 67 65 63 60 58 57 56 53 48 41 33 26 20 13 5 357 348 339 330 321 314 309 304 301 297 294
31 28 26 26 28 33 37 45 52 58 59 55 54 57 59 60 59 58 61 61 61 60 59 58 56 53 49 45 39 33 27 20 13 5 357 348 339 330 323 317 312 307 302 297
32 30 29 30 34 38 44 49 53 57 58 55 53 55 55 54 52 53 56 59 58 56 54 51 46 42 40 38 35 32 28 24 20 15 8 1 355 348 341 334 327 320 314 308
31 31 32 34 37 43 52 56 58 61 62 59 57 56 54 52 51 52 54 54 52 50 47 43 38 36 34 34 34 36 35 32 27 21 16 11 7 2 355 349 342 336 330 323
28 30 32 35 39 45 55 61 62 64 64 62 59 57 55 53 54 54 54 51 48 45 45 45 43 42 42 43 44 43 41 38 33 27 22 18 15 10 5 360 354 348 341 335
21 26 30 33 37 42 49 57 62 64 62 59 56 54 53 53 53 54 55 51 47 44 46 46 46 46 47 47 45 44 43 40 35 30 27 25 21 17 13 9 5 0 354 348
11 18 25 30 33 38 42 47 54 56 57 55 50 48 46 47 48 49 50 47 44 43 43 43 44 44 43 42 42 43 41 39 35 32 30 27 24 21 18 14 11 7 2 356
354 6 17 23 28 32 35 38 44 48 51 51 46 41 38 39 41 41 42 41 40 40 40 39 38 38 38 39 40 40 39 38 35 33 31 29 26 23 19 17 15 13 9 6
Height
5878 5878 5875 5874 5873 5871 5869 5867 5865 5863 5862 5862 5859 5858 5859 5860 5861 5861 5862 5863 5864 5866 5867 5868 5869 5870 5871 5870 5869 5869 5870 5870 5871 5871 5871 5872 5872 5872 5872 5872 5872 5872 5872 5873
5874 5872 5870 5867 5865 5863 5860 5858 5856 5853 5852 5851 5849 5848 5849 5850 5850 5850 5852 5853 5854 5855 5856 5858 5859 5861 5862 5863 5863 5862 5863 5864 5864 5864 5864 5864 5865 5865 5865 5865 5865 5864 5865 5867
5869 5867 5863 5860 5857 5853 5850 5848 5845 5843 5841 5840 5839 5838 5839 5839 5839 5840 5841 5842 5844 5846 5847 5848 5849 5851 5852 5854 5855 5855 5856 5857 5857 5856 5856 5856 5857 5858 5858 5858 5858 5858 5858 5860
5863 5859 5855 5850 5846 5843 5839 5836 5834 5832 5831 5829 5829 5828 5827 5829 5829 5830 5832 5833 5835 5837 5838 5840 5840 5841 5843 5844 5846 5847 5848 5849 5849 5849 5849 5849 5849 5850 5851 5852 5852 5851 5852 5853
5855 5850 5845 5840 5835 5831 5826 5824 5821 5820 5819 5818 5818 5818 5818 5819 5820 5821 5823 5824 5826 5828 5830 5831 5832 5833 5833 5834 5835 5837 5838 5840 5840 5840 5840 5842 5841 5841 5842 5843 5844 5845 5846 5847
5848 5842 5836 5829 5823 5817 5812 5809 5806 5805 5805 5805 5808 5807 5806 5809 5810 5812 5813 5815 5817 5819 5821 5822 5823 5824 5824 5825 5826 5827 5828 5830 5831 5832 5833 5834 5834 5833 5832 5834 5836 5838 5839 5840
5841 5835 5829 5822 5815 5808 5801 5796 5792 5790 5791 5793 5794 5795 5793 5798 5800 5802 5803 5805 5807 5809 5811 5812 5813 5814 5814 5815 5816 5818 5819 5821 5822 5824 5825 5826 5826 5825 5825 5826 5828 5830 5831 5832
5838 5832 5825 5817 5810 5802 5794 5787 5782 5780 5780 5781 5780 5782 5783 5786 5788 5791 5793 5795 5797 5799 5801 5802 5803 5804 5804 5805 5806 5808 5810 5812 5814 5816 5817 5818 5818 5818 5818 5819 5820 5822 5822 5824
5837 5830 5822 5815 5807 5799 5790 5781 5775 5772 5770 5771 5772 5773 5775 5777 5779 5781 5783 5786 5788 5790 5792 5793 5794 5795 5795 5796 5797 5799 5802 5803 5805 5807 5808 5808 5809 5809 5810 5811 5812 5813 5813 5815
5835 5828 5821 5814 5806 5799 5790 5781 5775 5771 5768 5768 5769 5769 5770 5771 5772 5774 5775 5778 5780 5783 5785 5787 5787 5788 5788 5789 5790 5792 5794 5796 5798 5799 5799 5799 5799 5800 5801 5802 5803 5805 5806 5809
5835 5828 5821 5814 5807 5799 5792 5785 5778 5773 5770 5769 5769 5771 5768 5768 5768 5769 5771 5773 5776 5779 5781 5783 5783 5783 5783 5783 5783 5785 5787 5789 5791 5792 5792 5792 5792 5793 5794 5795 5797 5799 5801 5804
5836 5829 5821 5815 5808 5801 5795 5788 5782 5778 5775 5772 5770 5774 5768 5768 5767 5768 5769 5772 5775 5778 5779 5780 5780 5780 5779 5779 5779 5780 5782 5784 5785 5786 5787 5787 5788 5789 5790 5791 5793 5795 5798 5800
5838 5831 5824 5818 5813 5806 5799 5792 5786 5782 5778 5775 5773 5775 5769 5767 5767 5768 5769 5772 5775 5778 5779 5779 5779 5779 5778 5777 5777 5778 5779 5780 5781 5782 5784 5785 5785 5787 5788 5789 5791 5793 5795 5796
5840 5833 5828 5822 5816 5809 5803 5797 5791 5787 5783 5779 5776 5774 5771 5770 5770 5770 5772 5774 5777 5778 5779 5779 5779 5779 5778 5778 5778 5778 5780 5780 5781 5781 5783 5784 5784 5786 5787 5789 5790 5791 5791 5791
5842 5836 5830 5824 5818 5813 5807 5802 5796 5792 5787 5784 5781 5778 5776 5775 5775 5775 5776 5778 5779 5780 5781 5781 5781 5781 5780 5780 5780 5780 5781 5781 5781 5782 5783 5784 5785 5786 5787 5787 5787 5787 5786 5786
5843 5838 5832 5827 5821 5817 5811 5807 5802 5798 5794 5790 5787 5785 5782 5781 5780 5781 5781 5782 5782 5783 5783 5784 5784 5784 5784 5783 5783 5783 5783 5783 5783 5784 5784 5784 5784 5785 5785 5784 5784 5783 5782 5781
5845 5840 5835 5830 5825 5820 5816 5812 5809 5805 5800 5797 5794 5792 5789 5788 5787 5787 5787 5787 5787 5787 5787 5787 5787 5786 5786 5786 5786 5786 5786 5785 5785 5785 5784 5784 5784 5783 5782 5782 5781 5779 5778 5777
5847 5842 5837 5832 5829 5824 5822 5816 5813 5811 5807 5804 5801 5798 5796 5794 5793 5793 5792 5792 5792 5792 5791 5791 5790 5790 5789 5789 5788 5788 5787 5787 5786 5785 5784 5783 5782 5781 5780 5778 5777 5775 5773 5770
5849 5844 5839 5834 5830 5827 5824 5820 5817 5815 5813 5811 5809 5806 5804 5802 5800 5799 5799 5798 5797 5796 5796 5795 5794 5793 5793 5792 5791 5790 5789 5788 5787 5785 5784 5782 5780 5779 5777 5775 5772 5770 5767 5764
5852 5846 5841 5836 5832 5829 5828 5824 5821 5820 5818 5816 5814 5812 5810 5807 5806 5806 5804 5803 5802 5801 5800 5799 5798 5797 5796 5795 5793 5792 5790 5789 5787 5785 5783 5781 5778 5776 5773 5771 5768 5765 5762 5759
5856 5850 5844 5838 5834 5831 5829 5826 5825 5825 5824 5821 5818 5816 5814 5813 5812 5811 5809 5808 5807 5805 5804 5803 5801 5800 5798 5796 5794 5793 5791 5789 5787 5784 5782 5780 5777 5774 5771 5767 5764 5761 5758 5755
5860 5854 5848 5841 5836 5836 5830 5829 5828 5828 5825 5824 5822 5821 5819 5818 5817 5815 5813 5812 5810 5809 5807 5805 5803 5801 5800 5798 5796 5794 5792 5790 5787 5785 5783 5780 5776 5773 5769 5766 5762 5758 5755 5752
5863 5859 5853 5847 5843 5837 5833 5831 5830 5829 5828 5826 5825 5824 5823 5822 5821 5819 5817 5816 5814 5812 5810 5808 5806 5805 5803 5800 5798 5796 5794 5792 5789 5787 5784 5781 5777 5773 5769 5765 5761 5757 5753 5749
5866 5862 5857 5852 5846 5841 5837 5834 5832 5830 5829 5828 5827 5826 5825 5824 5823 5822 5820 5819 5817 5815 5813 5811 5809 5807 5805 5803 5801 5799 5797 5794 5791 5788 5785 5782 5778 5774 5770 5765 5760 5756 5751 5747
5869 5865 5861 5856 5852 5846 5842 5838 5835 5832 5831 5830 5829 5827 5826 5825 5824 5823 5822 5821 5819 5817 5816 5814 5811 5809 5807 5805 5804 5801 5799 5796 5793 5790 5787 5783 5780 5776 5771 5766 5761 5756 5751 5746
5870 5867 5864 5860 5856 5851 5847 5842 5838 5835 5833 5831 5830 5828 5827 5826 5825 5824 5823 5822 5821 5819 5817 5816 5814 5811 5809 5807 5805 5803 5801 5798 5795 5793 5789 5785 5782 5777 5773 5768 5763 5758 5752 5746